Regional Weather Roundup
Issued by NWS

Home | Current Version | Previous Version | Text Only | Print | Product List | Glossary On
Versions: 1 2 3 4 5 6 7 8 9 10 11 12 13 14 15 16 17 18 19 20 21 22 23 24 25 26 27 28 29 30 31 32 33 34 35 36 37 38 39 40 41 42 43 44 45 46 47 48 49 50
000
ASUS45 KABQ 051010
RWRNM
NEW MEXICO REGIONAL WEATHER ROUNDUP
NATIONAL WEATHER SERVICE ALBUQUERQUE NM
400 AM MDT SUN JUL 05 2015

NOTE: "FAIR" MEANS FEW OR NO CLOUDS BELOW 12,000 FEET AGL WITH NO
       SIGNIFICANT WEATHER OR OBSTRUCTIONS TO VISION.

      THIS PRODUCT IS RELEASED AS TWO VERSIONS.  ONE VERSION NEAR
      THE TOP OF THE HOUR CONTAINING PRELIMINARY DATA FROM ALBUQUERQUE
      AND OTHER STATIONS.  A FINAL VERSION WITH ADDITIONAL DATA IS
      ISSUED ABOUT 10 MINUTES AFTER THE HOUR.

NMZ501-503-504-510>518-051100-
NORTHWEST PLATEAU/NORTHCENTRAL MOUNTAINS

CITY           SKY/WX    TMP DP  RH WIND       PRES   REMARKS
FARMINGTON     MOCLDY    65  59  81 CALM      30.14S
LOS ALAMOS     CLEAR     64  51  61 CALM      30.25S
SANTA FE       CLEAR     60  54  80 N6        30.18R
TAOS           CLEAR     55  43  62 E5        30.25S
ANGEL FIRE     FAIR      45  44  97 CALM      30.33S

$$
NMZ402-403-502-505>509-051100-
WESTCENTRAL MOUNTAINS/SOUTHWEST MOUNTAINS

CITY           SKY/WX    TMP DP  RH WIND       PRES   REMARKS
GALLUP         CLOUDY    62  56  80 CALM      30.22R
GRANTS         CLOUDY    59  57  95 CALM      30.24S
SILVER CITY      N/A     64  63  94 NW7       30.17F

$$
NMZ407-409-411-412-051100-
SOUTHERN DESERTS

CITY           SKY/WX    TMP DP  RH WIND       PRES   REMARKS
LORDSBURG      FAIR      72  59  64 S7        30.08F
DEMING         LGT RAIN  68  66  93 CALM      30.08R
LAS CRUCES     CLOUDY    68  64  86 N3        30.08R
HOLLOMAN AFB   CLEAR     73  59  61 S5        30.02S
ALAMOGORDO     PTCLDY    70  57  64 SE3       30.05S
T OR C         CLOUDY    69  64  84 NW3       30.09F

$$
NMZ519>523-051100-
CENTRAL VALLEYS/CENTRAL HIGHLANDS

CITY           SKY/WX    TMP DP  RH WIND       PRES   REMARKS
ALBUQUERQUE    CLOUDY    68  57  68 SE5       30.14R
DOUBLE EAGLE   MOCLDY    63  56  78 CALM      30.17S
MORIARTY ARPT    N/A     57  52  84 CALM      30.19S
CLINES CORNERS PTCLDY    59  51  75 W8        30.22R
BELEN          FAIR      66  56  69 W7        30.12S
SOCORRO        FAIR      66  61  82 CALM      30.11S

$$
NMZ524>526-539-540-051100-
SOUTHCENTRAL MOUNTAINS

CITY           SKY/WX    TMP DP  RH WIND       PRES   REMARKS
RUIDOSO        PTCLDY    59  54  82 N5        30.24S

$$
NMZ527>531-051100-
NORTHEAST HIGHLANDS/NORTHEAST PLAINS

CITY           SKY/WX    TMP DP  RH WIND       PRES   REMARKS
LAS VEGAS      CLEAR     58  52  80 SW5       30.19F
RATON          CLEAR     57  53  86 NW5       30.13S
CLAYTON        PTCLDY    66  57  72 SW9       30.04F

$$
NMZ532>537-051100-
EASTCENTRAL PLAINS

CITY           SKY/WX    TMP DP  RH WIND       PRES   REMARKS
TUCUMCARI      PTCLDY    71  59  65 SW12      30.02R
CANNON AFB     CLEAR     66  62  87 SW6       30.07R
CLOVIS AIRPORT CLEAR     64  59  82 SW6         N/A

$$
NMZ028-029-538-051100-
SOUTHEAST PLAINS

CITY           SKY/WX    TMP DP  RH WIND       PRES   REMARKS
ROSWELL        PTCLDY    69  59  70 S5        30.01S
ARTESIA        PTCLDY    72  61  68 SE8       30.02S
CARLSBAD       MOCLDY    73  61  65 SE6       29.99S
HOBBS          CLEAR     66  64  94 CALM      30.06R


$$


USA.gov is the U.S. government's official web portal to all federal, state and local government web resources and services.